Regional Weather Roundup
Issued by NWS

Home | Current Version | Previous Version | Graphics & Text | Print | Product List | Glossary On
Versions: 1 2 3 4 5 6 7 8 9 10 11 12 13 14 15 16 17 18 19 20 21 22 23 24 25 26 27 28 29 30 31 32 33 34 35 36 37 38 39 40 41 42 43 44 45 46 47 48 49 50
000
ASUS45 KPSR 230910
RWRAZ

ARIZONA HOURLY REGIONAL WEATHER ROUNDUP
NATIONAL WEATHER SERVICE PHOENIX AZ
200 AM MST THU MAR 23 2017

NOTE: FAIR INDICATES FEW OR NO CLOUDS BELOW 12,000 FEET WITH NO
SIGNIFICANT WEATHER AND/OR OBSTRUCTIONS TO VISIBILITY.

AZZ001>003-036-231000-
NORTHWEST ARIZONA

CITY           SKY/WX    TMP DP  RH WIND       PRES   REMARKS
BULLHEAD CITY  PTCLDY    63  32  31 W14       29.83R
KINGMAN        MOCLDY    46  32  58 SW5       29.85S
$$

AZZ004>008-015-016-018-231000-
NORTH CENTRAL ARIZONA

CITY           SKY/WX    TMP DP  RH WIND       PRES   REMARKS
GRAND CANYON   CLOUDY    34  34 100 S6        29.88F WCI  29
WILLIAMS       LGT SNOW  32  32 100 S6        29.89S WCI  26
PRESCOTT       CLOUDY    39  37  92 S6        29.90F WCI  35
FLAGSTAFF      SNOW      32  32 100 SW7       29.90F VSB 1/2 WCI  26
PAYSON         CLOUDY    48  41  76 W8G16     29.92F
PAGE           CLOUDY    47 N/A N/A NW3       29.85S
$$

AZZ009>014-017-231000-
NORTHEAST ARIZONA

CITY           SKY/WX    TMP DP  RH WIND       PRES   REMARKS
WINSLOW        CLOUDY    45  37  73 N5        29.90S
SAINT JOHNS    CLEAR     50  31  48 SW12      29.89S
WINDOW ROCK    CLEAR     46  29  51 SW10      29.91F
SHOW LOW       LGT RAIN  46  36  66 SW17G30   29.93F
$$

AZZ023-231000-
GREATER PHOENIX AREA

CITY           SKY/WX    TMP DP  RH WIND       PRES   REMARKS
PHOENIX        CLOUDY    60  47  61 NW17G25   29.89R
BUCKEYE        CLOUDY    55  55 100 NE3       29.90F
LUKE AFB       CLOUDY    57  48  72 NW6       29.89F
DEER VALLEY    LGT RAIN  53  47  79 NW14      29.91R
SCOTTSDALE     LGT RAIN  57  44  62 NW17G24   29.92R
MESA-GATEWAY   MOCLDY    61  43  51 W12       29.90R
$$

AZZ027-028-231000-
SOUTHWEST MARICOPA COUNTY AND PINAL COUNTY

CITY           SKY/WX    TMP DP  RH WIND       PRES   REMARKS
CASA GRANDE    NOT AVBL
GILA BEND      CLOUDY    59  45  58 CALM      29.89F
$$

AZZ503-504-507>509-231000-
SOUTHEAST ARIZONA

CITY           SKY/WX    TMP DP  RH WIND       PRES   REMARKS
TUCSON         PTCLDY    63  46  54 SW5       29.92F
DAVIS-MONTHAN  PTCLDY    63  45  52 CALM      29.90F
NOGALES        CLOUDY    58  46  64 S9        29.96F
SIERRA VISTA   CLEAR     57  37  46 SW24G32   29.93F
DOUGLAS        CLEAR     59  32  36 S8        29.93F
SAFFORD        CLEAR     64  38  38 W16       29.84F
$$

AZZ020-021-025-026-031-231000-
SOUTHWEST ARIZONA

CITY           SKY/WX    TMP DP  RH WIND       PRES   REMARKS
YUMA           MOCLDY    57  42  57 W13       29.89F
$$

CAZ031-033-041-043-047-048-061-231000-
SOUTHERN CALIFORNIA

CITY           SKY/WX    TMP DP  RH WIND       PRES   REMARKS
DOWNTOWN L.A.  CLEAR     54  49  83 CALM      30.00R
L.A. AIRPORT   PTCLDY    55  49  80 W9        30.01R
SAN DIEGO      MOCLDY    58  47  66 W15       30.07R
BURBANK        CLEAR     51  41  68 NW5       29.99S
ONTARIO        MOCLDY    53  48  83 SW10      29.99R
RIVERSIDE      CLEAR     53  48  83 W3        30.00R
PALM SPRINGS   CLOUDY    63  35  35 E7        29.87S
EL CENTRO NAS  PTCLDY    61  40  45 W10       29.92S
IMPERIAL       PTCLDY    57  43  59 W10       29.89F
BLYTHE         PTCLDY    61  40  45 W12       29.86S
NEEDLES        PTCLDY    59  35  40 SW6       29.83S
$$

NVZ020-UTZ003-231000-
SOUTHERN NEVADA-UTAH

CITY           SKY/WX    TMP DP  RH WIND       PRES   REMARKS
LAS VEGAS      MOCLDY    54  28  36 S10G17    29.77S
SALT LAKE CITY HVY RAIN  45  42  89 NW12      29.72S
$$

NMZ009-TXZ055-231000-
NEW MEXICO-WEST TEXAS

CITY           SKY/WX    TMP DP  RH WIND       PRES   REMARKS
ALBUQUERQUE    PTCLDY    58  16  19 SE15G21   29.88F
EL PASO        PTCLDY    70  12  10 SW6       29.91S
$$


........................KEY........................
SKY/WX - SKY CONDITION/WEATHER
TMP    - TEMPERATURE IN FAHRENHEIT
DP     - DEW POINT IN FAHRENHEIT
RH     - RELATIVE HUMIDITY IN PERCENT
WIND   - DIRECTION AND SPEED IN MILES PER HOUR (MPH)
VRB    - VARIABLE WIND DIRECTION
PRES   - MEAN SEA LEVEL PRESSURE IN INCHES OF MERCURY
         F - FALLING PRESSURE   R - RISING PRESSURE
         S - STEADY PRESSURE
VSB    - VISIBILITY IN MILES
HX     - HEAT INDEX IN FAHRENHEIT
WCI    - WIND CHILL INDEX IN FAHRENHEIT
TC     - TEMPERATURE IN CELSIUS WHICH IS ALSO KNOWN AS
         TEMPERATURE IN CENTIGRADE
AFB    - AIR FORCE BASE
         LUKE AFB IS LUKE AIR FORCE BASE
         DAVIS-MONTHAN IS DAVIS-MONTHAN AIR FORCE BASE
NAS    - NAVAL AIR STATION
         EL CENTRO NAS IS EL CENTRO NAVAL AIR STATION
N/A    - NOT AVAILABLE




USA.gov is the U.S. government's official web portal to all federal, state and local government web resources and services.